Regional Weather Roundup
Issued by NWS

Home | Current Version | Previous Version | Graphics & Text | Print | Product List | Glossary On
Versions: 1 2 3 4 5 6 7 8 9 10 11 12 13 14 15 16 17 18 19 20 21 22 23 24 25 26 27 28 29 30 31 32 33 34 35 36 37 38 39 40 41 42 43 44 45 46 47 48 49 50
000
ASUS43 KDTX 011010
RWRMI
MICHIGAN HOURLY REGIONAL WEATHER ROUNDUP
NATIONAL WEATHER SERVICE DETROIT/PONTIAC MI
600 AM EDT WED OCT 01 2014

NOTE: "FAIR" INDICATES FEW OR NO CLOUDS BELOW 12,000 FEET WITH NO
SIGNIFICANT WEATHER AND/OR OBSTRUCTION TO VISIBILITY.

MIZ047>049-052>055-059>063-066>070-074>076-081>083-011100-
SOUTHEAST LOWER MICHIGAN

CITY           SKY/WX    TMP DP  RH WIND       PRES   REMARKS
ADRIAN         CLOUDY    50  48  93 CALM      30.03S
ALMA           FOG       51  50  97 N5        30.04S VSB 3/4
ANN ARBOR      CLOUDY    52  50  93 W3        30.02S FOG
BAD AXE        FOG       56  56 100 NE3       30.04R VSB 1/2
CARO           CLOUDY    56  56 100 CALM      30.02F FOG
DETROIT CITY   CLOUDY    55  54  96 CALM      30.04S
DETROIT        CLOUDY    54  51  90 CALM      30.03S
FLINT          FOG       53  51  93 NW5       30.03S VSB 1/4
GROSSE ILE     CLOUDY    55  52  88 CALM      30.01S
HILLSDALE      CLOUDY    51  51 100 CALM      30.02S
HOWELL         FOG       52  51  99 CALM      30.03R VSB 3/4

CITY           SKY/WX    TMP DP  RH WIND       PRES   REMARKS
JACKSON        CLOUDY    51  49  92 CALM      30.02S
LAMBERTVILLE   CLEAR     46  45  93 CALM      30.02S FOG
LANSING        CLOUDY    50  49  96 CALM      30.03S FOG
LAPEER         FOG       53  53  97 CALM      30.03S VSB 1/4
MASON          CLOUDY    50  49  97 N3        30.03S FOG
MONROE         CLOUDY    48  48 100 CALM      30.01S FOG
MT. CLEMENS    CLOUDY    54  54 100 NW3       30.00S FOG
PONTIAC        CLOUDY    53  51  93 NE3       30.01S
PORT HOPE        N/A     58  57  97 CALM      30.02S
PORT HURON     FOG       54  54 100 CALM      30.02S VSB 1/2
TRI CITIES     CLOUDY    53  51  93 N7        30.04S FOG
TROY           CLOUDY    56  53  91 CALM      30.04S FOG
SAGINAW HB     CLOUDY    54  54 100 N5        30.02F FOG
$$
MIZ043>046-050>051-056>058-064>065-071>073-077>080-011100-
SOUTHWEST LOWER MICHIGAN

CITY           SKY/WX    TMP DP  RH WIND       PRES   REMARKS
BATTLE CREEK   CLOUDY    52  48  86 CALM      30.03S
BIG RAPIDS     CLOUDY    51  51 100 NW3       30.04S
COLDWATER      CLOUDY    53  47  82 SE3       30.02S
FREMONT        CLOUDY    51  49  92 E3        30.02F
HOLLAND        CLOUDY    54  49  83 E3        30.04R
GRAND RAPIDS   CLOUDY    53  51  93 E3        30.03S
IONIA          CLOUDY    51  51  97 N5        30.02S
KALAMAZOO      CLOUDY    52  47  83 VRB3      30.03S
LUDINGTON      CLOUDY    52  49  91 CALM      30.03F
MARSHALL       CLOUDY    50  48  93 CALM      30.02S
MOUNT PLEASANT FOG       51  50  97 N5        30.03S VSB 3/4
MUSKEGON       CLOUDY    53  48  83 CALM      30.03S
SOUTH HAVEN    CLOUDY    54  50  87 SE3       30.02S
$$
MIZ016>042-011100-
NORTHERN LOWER MICHIGAN

CITY           SKY/WX    TMP DP  RH WIND       PRES   REMARKS
ALPENA         CLOUDY    52  52 100 CALM      30.07S FOG
BEAVER ISLAND  CLOUDY    54  53  96 CALM      30.05S
BELLAIRE       CLOUDY    51  49  93 CALM      30.05S
CADILLAC       CLOUDY    48  48 100 CALM      30.03F FOG
CHARLEVOIX     CLOUDY    52  52  99 SE3       30.08S
FRANKFORT      CLOUDY    52  49  89 CALM      30.04S
GAYLORD        FOG       50  50 100 SE3       30.06R VSB 1/2
GRAYLING       FOG       51  51 100 NE3       30.06S VSB 1
HARBOR SPRINGS CLOUDY    52  50  92 E7        30.07R
HOUGHTON LAKE  CLOUDY    50  50 100 NE5       30.05S FOG
OSCODA         DRIZZLE   54  54 100 NE6       30.05S
PELLSTON       CLOUDY    51  51 100 CALM      30.07S
ROGERS CITY    CLOUDY    52  52 100 CALM      30.08F
TRAVERSE CITY  CLOUDY    52  48  86 CALM      30.04S
$$
MIZ007>008-015-011100-
EASTERN UPPER MICHIGAN

CITY           SKY/WX    TMP DP  RH WIND       PRES   REMARKS
MACKINAC ISLAN CLOUDY    53  52  95 E5        30.07R
NEWBERRY       CLOUDY    50  49  98 E7        30.04S
S. S. MARIE    CLOUDY    51  47  86 E3        30.07S
MUNISING         N/A     52  47  83 CALM      30.01F
$$
MIZ004>006-011>014-085-011100-
CENTRAL UPPER MICHIGAN

CITY           SKY/WX    TMP DP  RH WIND       PRES   REMARKS
MANISTIQUE     CLOUDY    55  52  90 S9        30.03S
SAWYER-GWINN   FOG       46  46  97 S5        30.00S VSB 3/4
$$
MIZ001>003-009>011-084-011100-
WESTERN UPPER MICHIGAN

CITY           SKY/WX    TMP DP  RH WIND       PRES   REMARKS
IRON MOUNTAIN  CLOUDY    47  46  97 SE5       30.00S FOG
HOUGHTON       CLOUDY    49  45  86 SE9       29.97R
COPPER HARBOR    N/A     49  45  86 SW13G24   29.95F
$$

ABBREVIATIONS USED IN REMARKS
   TC - TEMPERATURE IN CELSIUS
  WCI - WIND CHILL INDEX
   HX - HEAT INDEX
  VSB - VISIBILITY



USA.gov is the U.S. government's official web portal to all federal, state and local government web resources and services.